Location: Felsheim
(48.7267°N, 10.7386°E)
Time: 09:03:05
(UTC+00:00)

STARLINK-1229 - Pass Details

Date: 09 April 2020
Orbit: 378 x 381 km, 53.0° (Epoch: 26 May)

Event Time Altitude Azimuth Distance (km) Brightness Sun altitude
Rises 19:52:18 0° 291° (WNW) 2,262 8.3 -17.6°
Reaches altitude 10° 19:54:31 10° 280° (W) 1,404 6.7 -17.9°
Maximum altitude 19:57:16 28° 218° (SW) 745 4.3 -18.2°
Enters shadow 19:57:33 28° 207° (SSW) 754 4.2 -18.3°
